| time (UTC) | temp F | wind direction | speed MPH | gust MPH | rain 1hr in | rain 24hr in | rain mn in | humidity % | barometer mb |
| 20260510194530 | 79 | 241 | 0.0 | 3.0 | 0.00 | 0.00 | 0.00 | 49 | 1011.1 |
| 20260510193503 | 80 | 236 | 0.0 | 0.0 | 0.00 | 0.00 | 0.00 | 46 | 1011.0 |
| 20260510192521 | 81 | 236 | 0.0 | 0.0 | 0.00 | 0.00 | 0.00 | 41 | 1011.1 |
| 20260510191453 | 82 | 236 | 0.0 | 0.0 | 0.00 | 0.00 | 0.00 | 39 | 1011.2 |
| 20260510185324 | 84 | 236 | 0.0 | 3.0 | 0.00 | 0.00 | 0.00 | 38 | 1011.3 |
| 20260510184335 | 85 | 236 | 0.0 | 0.0 | 0.00 | 0.00 | 0.00 | 36 | 1011.3 |
| 20260510183301 | 85 | 278 | 2.0 | 7.0 | 0.00 | 0.00 | 0.00 | 35 | 1011.3 |
| 20260510182237 | 86 | 219 | 2.0 | 8.0 | 0.00 | 0.00 | 0.00 | 34 | 1011.3 |
| 20260510181243 | 87 | 236 | 3.0 | 9.0 | 0.00 | 0.00 | 0.00 | 34 | 1011.4 |
| 20260510180235 | 87 | 256 | 3.0 | 11.0 | 0.00 | 0.00 | 0.00 | 35 | 1011.6 |
| 20260510175240 | 87 | 259 | 2.0 | 11.0 | 0.00 | 0.00 | 0.00 | 33 | 1011.7 |
| 20260510171945 | 88 | 323 | 3.0 | 11.0 | 0.00 | 0.00 | 0.00 | 34 | 1012.0 |
| 20260510170955 | 87 | 251 | 3.0 | 9.0 | 0.00 | 0.00 | 0.00 | 34 | 1012.1 |
| 20260510165934 | 87 | 282 | 2.0 | 8.0 | 0.00 | 0.00 | 0.00 | 34 | 1012.1 |
| 20260510163822 | 86 | 323 | 2.0 | 5.0 | 0.00 | 0.00 | 0.00 | 36 | 1012.3 |
| 20260510162831 | 85 | 242 | 1.0 | 10.0 | 0.00 | 0.00 | 0.00 | 36 | 1012.3 |
| 20260510161823 | 85 | 242 | 2.0 | 10.0 | 0.00 | 0.00 | 0.00 | 36 | 1012.4 |
| 20260510155738 | 84 | 298 | 2.0 | 6.0 | 0.00 | 0.00 | 0.00 | 39 | 1012.5 |
| 20260510154711 | 83 | 252 | 0.0 | 5.0 | 0.00 | 0.00 | 0.00 | 40 | 1012.6 |
| 20260510153722 | 83 | 242 | 0.0 | 5.0 | 0.00 | 0.00 | 0.00 | 38 | 1012.5 |
| 20260510152710 | 82 | 287 | 0.0 | 4.0 | 0.00 | 0.00 | 0.00 | 41 | 1012.6 |
| 20260510151648 | 82 | 312 | 2.0 | 9.0 | 0.00 | 0.00 | 0.00 | 42 | 1012.6 |
| 20260510145436 | 83 | 309 | 2.0 | 8.0 | 0.00 | 0.00 | 0.00 | 41 | 1012.4 |
| 20260510142208 | 81 | 327 | 2.0 | 10.0 | 0.00 | 0.00 | 0.00 | 41 | 1011.9 |
| 20260510141216 | 80 | 280 | 1.0 | 10.0 | 0.00 | 0.00 | 0.00 | 42 | 1011.9 |
| 20260510140157 | 79 | 227 | 1.0 | 6.0 | 0.00 | 0.00 | 0.00 | 44 | 1012.0 |
| 20260510135139 | 77 | 293 | 0.0 | 0.0 | 0.00 | 0.00 | 0.00 | 53 | 1012.0 |
| 20260510134150 | 77 | 293 | 0.0 | 1.0 | 0.00 | 0.00 | 0.00 | 53 | 1012.2 |
| 20260510132041 | 75 | 293 | 0.0 | 0.0 | 0.00 | 0.00 | 0.00 | 56 | 1012.1 |
| 20260510131053 | 73 | 293 | 0.0 | 1.0 | 0.00 | 0.00 | 0.00 | 60 | 1012.1 |
| 20260510130029 | 70 | 293 | 0.0 | 1.0 | 0.00 | 0.00 | 0.00 | 67 | 1012.1 |
| 20260510124959 | 69 | 293 | 0.0 | 0.0 | 0.00 | 0.00 | 0.00 | 73 | 1012.3 |
| 20260510123946 | 67 | 293 | 0.0 | 0.0 | 0.00 | 0.00 | 0.00 | 75 | 1012.4 |
| 20260510122943 | 64 | 293 | 0.0 | 0.0 | 0.00 | 0.00 | 0.00 | 80 | 1012.5 |
| 20260510121931 | 63 | 297 | 0.0 | 0.0 | 0.00 | 0.00 | 0.00 | 82 | 1012.4 |
| 20260510115751 | 60 | 297 | 0.0 | 0.0 | 0.00 | 0.00 | 0.00 | 87 | 1012.3 |
| 20260510113605 | 57 | 297 | 0.0 | 0.0 | 0.00 | 0.00 | 0.00 | 92 | 1012.0 |
| 20260510112622 | 55 | 297 | 0.0 | 0.0 | 0.00 | 0.00 | 0.00 | 94 | 1011.8 |
| 20260510111626 | 54 | 297 | 0.0 | 0.0 | 0.00 | 0.00 | 0.00 | 94 | 1011.6 |
| 20260510110602 | 54 | 297 | 0.0 | 0.0 | 0.00 | 0.00 | 0.00 | 94 | 1011.4 |
| 20260510105530 | 53 | 297 | 0.0 | 0.0 | 0.00 | 0.00 | 0.00 | 93 | 1011.2 |
| 20260510104530 | 53 | 197 | 0.0 | 0.0 | 0.00 | 0.00 | 0.00 | 93 | 1011.0 |
| 20260510103508 | 53 | 197 | 0.0 | 0.0 | 0.00 | 0.00 | 0.00 | 93 | 1010.9 |
| 20260510102506 | 53 | 197 | 0.0 | 0.0 | 0.00 | 0.00 | 0.00 | 93 | 1010.7 |
| 20260510100358 | 52 | 197 | 0.0 | 0.0 | 0.00 | 0.00 | 0.00 | 93 | 1010.4 |
| 20260510095355 | 52 | 197 | 0.0 | 0.0 | 0.00 | 0.00 | 0.00 | 92 | 1010.4 |
| 20260510093253 | 52 | 197 | 0.0 | 0.0 | 0.00 | 0.00 | 0.00 | 92 | 1010.4 |
| 20260510092317 | 52 | 197 | 0.0 | 0.0 | 0.00 | 0.00 | 0.00 | 92 | 1010.4 |
| 20260510091307 | 53 | 197 | 0.0 | 0.0 | 0.00 | 0.00 | 0.00 | 91 | 1010.3 |
| 20260510090322 | 53 | 197 | 0.0 | 0.0 | 0.00 | 0.00 | 0.00 | 91 | 1010.2 |
| 20260510085319 | 53 | 197 | 0.0 | 0.0 | 0.00 | 0.00 | 0.00 | 91 | 1010.2 |
| 20260510083155 | 53 | 197 | 0.0 | 0.0 | 0.00 | 0.00 | 0.00 | 91 | 1010.2 |
| 20260510082210 | 54 | 197 | 0.0 | 0.0 | 0.00 | 0.00 | 0.00 | 91 | 1010.1 |
| 20260510081206 | 54 | 197 | 0.0 | 0.0 | 0.00 | 0.00 | 0.00 | 91 | 1010.0 |
| 20260510080214 | 54 | 197 | 0.0 | 0.0 | 0.00 | 0.00 | 0.00 | 91 | 1009.8 |
| 20260510075154 | 54 | 197 | 0.0 | 0.0 | 0.00 | 0.00 | 0.00 | 90 | 1009.6 |
| 20260510074125 | 54 | 197 | 0.0 | 0.0 | 0.00 | 0.00 | 0.00 | 90 | 1009.6 |
| 20260510073118 | 54 | 197 | 0.0 | 0.0 | 0.00 | 0.00 | 0.00 | 91 | 1009.5 |
| 20260510072129 | 54 | 197 | 0.0 | 0.0 | 0.00 | 0.00 | 0.00 | 90 | 1009.5 |
| 20260510071119 | 55 | 197 | 0.0 | 0.0 | 0.00 | 0.00 | 0.00 | 90 | 1009.2 |
| 20260510070122 | 55 | 197 | 0.0 | 0.0 | 0.00 | 0.00 | 0.00 | 90 | 1009.1 |
| 20260510065109 | 55 | 197 | 0.0 | 0.0 | 0.00 | 0.00 | 0.00 | 90 | 1009.0 |
| 20260510064042 | 55 | 197 | 0.0 | 0.0 | 0.00 | 0.00 | 0.00 | 89 | 1009.0 |
| 20260510063011 | 56 | 197 | 0.0 | 0.0 | 0.00 | 0.00 | 0.00 | 89 | 1008.9 |
| 20260510062025 | 56 | 197 | 0.0 | 0.0 | 0.00 | 0.00 | 0.00 | 89 | 1008.9 |
| 20260510061018 | 56 | 197 | 0.0 | 0.0 | 0.00 | 0.00 | 0.00 | 88 | 1009.1 |
| 20260510055949 | 56 | 197 | 0.0 | 0.0 | 0.00 | 0.00 | 0.00 | 88 | 1008.9 |
| 20260510053746 | 57 | 197 | 0.0 | 0.0 | 0.00 | 0.00 | 0.00 | 87 | 1009.0 |
| 20260510052748 | 58 | 197 | 0.0 | 0.0 | 0.00 | 0.00 | 0.00 | 86 | 1009.1 |
| 20260510051726 | 58 | 197 | 0.0 | 0.0 | 0.00 | 0.00 | 0.00 | 87 | 1009.1 |
| 20260510050736 | 58 | 197 | 0.0 | 0.0 | 0.00 | 0.00 | 0.00 | 86 | 1009.0 |
| 20260510045734 | 58 | 197 | 0.0 | 0.0 | 0.00 | 0.00 | 0.00 | 86 | 1009.0 |
| 20260510044705 | 58 | 197 | 0.0 | 0.0 | 0.00 | 0.00 | 0.00 | 86 | 1008.9 |
| 20260510043714 | 58 | 197 | 0.0 | 1.0 | 0.00 | 0.00 | 0.00 | 85 | 1009.1 |
| 20260510042640 | 59 | 197 | 0.0 | 0.0 | 0.00 | 0.00 | 0.00 | 85 | 1009.1 |
| 20260510041613 | 59 | 197 | 0.0 | 0.0 | 0.00 | 0.00 | 0.00 | 84 | 1009.0 |
| 20260510040602 | 59 | 197 | 0.0 | 1.0 | 0.00 | 0.00 | 0.00 | 84 | 1009.0 |
| 20260510035605 | 60 | 197 | 0.0 | 0.0 | 0.00 | 0.00 | 0.00 | 83 | 1009.0 |
| 20260510032320 | 61 | 197 | 0.0 | 0.0 | 0.00 | 0.00 | 0.00 | 80 | 1008.8 |
| 20260510031312 | 61 | 197 | 0.0 | 0.0 | 0.00 | 0.00 | 0.00 | 80 | 1008.8 |
| 20260510030331 | 62 | 197 | 0.0 | 0.0 | 0.00 | 0.00 | 0.00 | 79 | 1008.8 |
| 20260510025352 | 62 | 197 | 0.0 | 0.0 | 0.00 | 0.00 | 0.00 | 78 | 1008.7 |
| 20260510024319 | 63 | 197 | 0.0 | 0.0 | 0.00 | 0.00 | 0.00 | 77 | 1008.6 |
| 20260510023304 | 63 | 197 | 0.0 | 0.0 | 0.00 | 0.00 | 0.00 | 76 | 1008.5 |
| 20260510022312 | 64 | 197 | 0.0 | 0.0 | 0.00 | 0.00 | 0.00 | 75 | 1008.5 |
| 20260510021239 | 64 | 197 | 0.0 | 0.0 | 0.00 | 0.00 | 0.00 | 75 | 1008.4 |
| 20260510020247 | 64 | 197 | 0.0 | 0.0 | 0.00 | 0.00 | 0.00 | 74 | 1008.3 |
| 20260510015222 | 64 | 197 | 0.0 | 0.0 | 0.00 | 0.00 | 0.00 | 73 | 1008.3 |
| 20260510014228 | 64 | 197 | 0.0 | 0.0 | 0.00 | 0.00 | 0.00 | 73 | 1008.2 |
| 20260510013216 | 65 | 197 | 0.0 | 0.0 | 0.00 | 0.00 | 0.00 | 72 | 1008.1 |
| 20260510012202 | 65 | 197 | 0.0 | 0.0 | 0.00 | 0.00 | 0.00 | 71 | 1007.8 |
| 20260510011211 | 66 | 197 | 0.0 | 0.0 | 0.00 | 0.00 | 0.00 | 70 | 1007.6 |
| 20260510010201 | 66 | 197 | 0.0 | 0.0 | 0.00 | 0.00 | 0.00 | 69 | 1007.5 |
| 20260510005132 | 67 | 197 | 0.0 | 0.0 | 0.00 | 0.00 | 0.00 | 67 | 1007.4 |
| 20260510004153 | 68 | 197 | 0.0 | 0.0 | 0.00 | 0.00 | 0.00 | 66 | 1007.4 |
| 20260510003146 | 69 | 197 | 0.0 | 0.0 | 0.00 | 0.00 | 0.00 | 63 | 1007.3 |
| 20260510002158 | 70 | 197 | 0.0 | 0.0 | 0.00 | 0.00 | 0.00 | 62 | 1007.2 |
| 20260510001142 | 71 | 197 | 0.0 | 0.0 | 0.00 | 0.00 | 0.00 | 60 | 1007.2 |
| 20260509235006 | 72 | 197 | 0.0 | 0.0 | 0.00 | 0.00 | 0.00 | 56 | 1007.0 |
| 20260509232838 | 73 | 197 | 0.0 | 0.0 | 0.00 | 0.00 | 0.00 | 53 | 1006.9 |
| 20260509231902 | 73 | 197 | 0.0 | 3.0 | 0.00 | 0.00 | 0.00 | 53 | 1006.9 |
| 20260509230847 | 73 | 197 | 0.0 | 5.0 | 0.00 | 0.00 | 0.00 | 52 | 1006.9 |
| 20260509224717 | 74 | 194 | 0.0 | 5.0 | 0.00 | 0.00 | 0.00 | 53 | 1006.9 |
| 20260509223742 | 74 | 158 | 1.0 | 4.0 | 0.00 | 0.00 | 0.00 | 51 | 1006.9 |
| 20260509221638 | 74 | 145 | 2.0 | 7.0 | 0.00 | 0.00 | 0.00 | 51 | 1006.9 |
| 20260509220610 | 76 | 171 | 1.0 | 5.0 | 0.00 | 0.00 | 0.00 | 49 | 1006.9 |
| 20260509215624 | 75 | 284 | 0.0 | 6.0 | 0.00 | 0.00 | 0.00 | 49 | 1006.8 |
| 20260509214632 | 75 | 207 | 1.0 | 5.0 | 0.00 | 0.00 | 0.00 | 50 | 1006.8 |
| 20260509213624 | 75 | 273 | 1.0 | 5.0 | 0.00 | 0.00 | 0.00 | 49 | 1006.9 |
| 20260509212609 | 75 | 194 | 3.0 | 8.0 | 0.00 | 0.00 | 0.00 | 47 | 1006.8 |
| 20260509211617 | 76 | 135 | 2.0 | 8.0 | 0.00 | 0.00 | 0.00 | 48 | 1006.7 |
| 20260509210620 | 76 | 251 | 2.0 | 9.0 | 0.00 | 0.00 | 0.00 | 47 | 1006.9 |
| 20260509205640 | 77 | 272 | 3.0 | 9.0 | 0.00 | 0.00 | 0.00 | 48 | 1006.8 |
| 20260509204645 | 76 | 282 | 2.0 | 8.0 | 0.00 | 0.00 | 0.00 | 48 | 1006.8 |
| 20260509203703 | 76 | 193 | 2.0 | 6.0 | 0.00 | 0.00 | 0.00 | 50 | 1006.7 |
| 20260509202728 | 75 | 158 | 2.0 | 6.0 | 0.00 | 0.00 | 0.00 | 51 | 1006.6 |
| 20260509201707 | 75 | 193 | 1.0 | 6.0 | 0.00 | 0.00 | 0.00 | 50 | 1006.7 |
| 20260509200714 | 75 | 184 | 1.0 | 6.0 | 0.00 | 0.00 | 0.00 | 51 | 1007.0 |
| 20260509195704 | 76 | 259 | 2.0 | 6.0 | 0.00 | 0.00 | 0.00 | 49 | 1007.2 |